M7ANY Weather Reports


time (UTC)temp
C
wind
direction
speed
KPH
gust
KPH
rain 1hr
cm
rain 24hr
cm
rain mn
cm
humidity
%
barometer
mb
20260508070503 11 154 0.0 3.2 0.00 0.00 0.00 86 1016.9
20260508070005 11 156 0.0 1.6 0.00 0.00 0.00 87 1016.8
20260508065503 11 163 0.0 1.6 0.00 0.00 0.00 88 1016.8
20260508065003 10 0 0.0 0.0 0.00 0.00 0.00 89 1016.8
20260508064717 10 0 0.0 0.0 0.00 0.00 0.00 89 1016.7
20260508064003 10 112 0.0 6.4 0.00 0.00 0.00 89 1016.6
20260508063504 10 109 1.6 6.4 0.00 0.00 0.00 89 1016.5
20260508063003 10 126 0.0 4.8 0.00 0.00 0.00 89 1016.5
20260508062504 10 130 1.6 4.8 0.00 0.00 0.00 89 1016.5
20260508062004 10 133 1.6 4.8 0.00 0.00 0.00 89 1016.5
20260508061714 10 133 1.6 4.8 0.00 0.00 0.00 89 1016.5
20260508061004 10 136 1.6 6.4 0.00 0.00 0.00 89 1016.4
20260508060505 10 139 1.6 6.4 0.00 0.00 0.00 89 1016.4
20260508060003 10 146 0.0 3.2 0.00 0.00 0.00 90 1016.3
20260508055503 10 149 1.6 6.4 0.00 0.00 0.00 90 1016.3
20260508055214 9 145 1.6 8.0 0.00 0.00 0.00 90 1016.3
20260508054503 9 150 0.0 8.0 0.00 0.00 0.00 90 1016.3
20260508053504 9 139 0.0 3.2 0.00 0.00 0.00 90 1016.2
20260508053004 9 133 0.0 3.2 0.00 0.00 0.00 90 1016.1
20260508052504 9 142 0.0 4.8 0.00 0.00 0.00 90 1016.1
20260508052004 9 129 1.6 4.8 0.00 0.00 0.00 90 1016.1
20260508051715 9 127 0.0 4.8 0.00 0.00 0.00 90 1016.0
20260508051213 9 144 0.0 3.2 0.00 0.00 0.00 90 1016.1
20260508050503 9 148 0.0 1.6 0.00 0.00 0.00 90 1016.0
20260508050003 9 0 0.0 0.0 0.00 0.00 0.00 90 1016.0
20260508045504 9 136 0.0 1.6 0.00 0.00 0.00 89 1015.9
20260508045003 9 140 0.0 3.2 0.00 0.00 0.00 89 1015.8
20260508044503 9 116 1.6 4.8 0.00 0.00 0.00 89 1015.9
20260508044004 9 108 0.0 4.8 0.00 0.00 0.00 89 1015.8
20260508043714 9 110 0.0 4.8 0.00 0.00 0.00 89 1015.8
20260508043003 9 124 0.0 4.8 0.00 0.00 0.00 89 1015.8
20260508042715 9 128 1.6 4.8 0.00 0.00 0.00 89 1015.8
20260508042003 9 141 0.0 6.4 0.00 0.00 0.00 89 1015.8
20260508041504 9 147 0.0 3.2 0.00 0.00 0.00 89 1015.8
20260508041214 9 143 0.0 1.6 0.00 0.00 0.00 89 1015.7
20260508040504 9 142 0.0 3.2 0.00 0.00 0.00 88 1015.8
20260508040005 9 134 0.0 3.2 0.00 0.00 0.00 88 1015.7
20260508035503 9 127 1.6 4.8 0.00 0.00 0.00 88 1015.8
20260508035003 9 128 1.6 4.8 0.00 0.00 0.00 88 1015.8
20260508034504 9 137 1.6 6.4 0.00 0.00 0.00 88 1015.8
20260508034004 9 138 1.6 6.4 0.00 0.00 0.00 88 1015.9
20260508033504 9 137 0.0 6.4 0.00 0.00 0.00 88 1015.8
20260508033217 9 134 0.0 3.2 0.00 0.00 0.00 88 1015.8
20260508032504 9 138 0.0 1.6 0.00 0.00 0.00 88 1015.8
20260508032004 9 134 0.0 1.6 0.00 0.00 0.00 87 1015.8
20260508031504 9 154 0.0 1.6 0.00 0.00 0.00 87 1015.9
20260508031003 9 129 0.0 3.2 0.00 0.00 0.00 87 1015.8
20260508030503 9 123 0.0 3.2 0.00 0.00 0.00 87 1015.8
20260508030003 9 131 0.0 1.6 0.00 0.00 0.00 87 1015.8
20260508025718 9 138 0.0 3.2 0.00 0.00 0.00 87 1015.7
20260508025216 9 138 0.0 3.2 0.00 0.00 0.00 87 1015.7
20260508024503 9 128 0.0 3.2 0.00 0.00 0.00 86 1015.8
20260508024003 9 128 0.0 3.2 0.00 0.00 0.00 86 1015.8
20260508023503 9 0 0.0 0.0 0.00 0.00 0.00 86 1015.8
20260508023213 9 0 0.0 0.0 0.00 0.00 0.00 86 1015.8
20260508022504 10 0 0.0 0.0 0.00 0.00 0.00 86 1015.8
20260508022004 10 162 0.0 3.2 0.00 0.00 0.00 86 1015.7
20260508021504 10 162 0.0 3.2 0.00 0.00 0.00 86 1015.7
20260508021004 10 153 0.0 4.8 0.00 0.00 0.00 85 1015.7
20260508020504 10 137 0.0 6.4 0.00 0.00 0.00 85 1015.7
20260508020216 10 137 1.6 6.4 0.00 0.00 0.00 85 1015.7
20260508015714 10 141 1.6 4.8 0.00 0.00 0.00 85 1015.7
20260508015004 10 139 1.6 4.8 0.00 0.00 0.00 85 1015.6
20260508014504 10 134 0.0 4.8 0.00 0.00 0.00 85 1015.6
20260508014004 10 137 1.6 6.4 0.00 0.00 0.00 85 1015.6
20260508013503 10 134 1.6 6.4 0.00 0.00 0.00 84 1015.6
20260508013003 10 131 1.6 6.4 0.00 0.00 0.00 84 1015.5
20260508012717 10 137 1.6 6.4 0.00 0.00 0.00 84 1015.6
20260508012003 10 137 0.0 4.8 0.00 0.00 0.00 84 1015.6
20260508011503 10 128 1.6 4.8 0.00 0.00 0.00 84 1015.6
20260508011216 10 130 1.6 4.8 0.00 0.00 0.00 84 1015.7
20260508010503 10 133 1.6 6.4 0.00 0.00 0.00 83 1015.7
20260508010004 10 129 1.6 6.4 0.00 0.00 0.00 83 1015.7
20260508005504 10 0 0.0 0.0 0.00 0.00 0.00 82 1015.7
20260508005218 10 0 0.0 0.0 0.00 0.00 0.00 82 1015.6
20260508004503 10 117 1.6 3.2 0.00 0.00 0.00 82 1015.7
20260508004003 10 112 1.6 4.8 0.00 0.00 0.00 82 1015.7
20260508003503 10 116 1.6 4.8 0.00 0.00 0.00 82 1015.7
20260508003003 10 122 0.0 4.8 0.00 0.00 0.00 81 1015.8
20260508002503 10 129 0.0 4.8 0.00 0.00 0.00 81 1015.8
20260508002003 10 134 1.6 8.0 0.00 0.00 0.00 81 1015.9
20260508001503 10 137 1.6 8.0 0.00 0.00 0.00 81 1015.9
20260508001003 10 139 1.6 6.4 0.00 0.00 0.00 81 1015.9
20260508000504 10 118 0.0 3.2 0.00 0.00 0.00 80 1015.9
20260508000004 10 190 0.0 4.8 0.00 0.00 0.00 80 1015.9
20260507235504 10 191 0.0 4.8 0.00 0.00 0.00 80 1015.9
20260507235004 10 198 0.0 3.2 0.00 0.00 0.00 80 1015.9
20260507234716 10 176 0.0 4.8 0.00 0.00 0.00 80 1015.9
20260507234003 10 156 3.2 8.0 0.00 0.00 0.00 79 1015.9
20260507233503 10 149 3.2 11.3 0.00 0.00 0.00 79 1015.9
20260507233215 10 146 3.2 11.3 0.00 0.00 0.00 79 1015.9
20260507232503 10 141 3.2 9.7 0.00 0.00 0.00 79 1015.8
20260507232003 11 142 3.2 8.0 0.00 0.00 0.00 79 1015.9
20260507231714 11 142 3.2 6.4 0.00 0.00 0.00 78 1015.9
20260507231004 11 143 3.2 11.3 0.00 0.00 0.00 78 1015.9
20260507230503 11 153 3.2 12.9 0.00 0.00 0.00 78 1015.8
20260507230006 11 153 3.2 12.9 0.00 0.00 0.00 78 1015.8
20260507225504 11 140 3.2 9.7 0.00 0.00 0.00 78 1015.9
20260507225003 11 145 3.2 9.7 0.00 0.00 0.00 77 1015.9
20260507224503 11 157 3.2 11.3 0.00 0.00 0.00 77 1015.9
20260507224003 11 152 3.2 11.3 0.00 0.00 0.00 77 1015.9
20260507223718 11 151 3.2 11.3 0.00 0.00 0.00 77 1015.9
20260507223003 11 156 4.8 14.5 0.00 0.00 0.00 76 1015.9
20260507222504 11 159 6.4 14.5 0.00 0.00 0.00 76 1015.9
20260507222003 11 160 6.4 14.5 0.00 0.00 0.00 76 1015.9
20260507221503 11 161 6.4 14.5 0.00 0.00 0.00 75 1015.9
20260507221003 11 162 4.8 14.5 0.00 0.00 0.00 75 1015.8
20260507220715 11 161 4.8 14.5 0.00 0.00 0.00 75 1015.9
20260507220003 11 158 6.4 16.1 0.00 0.00 0.00 74 1015.9
20260507215716 11 157 6.4 16.1 0.00 0.00 0.00 74 1015.9
20260507215004 11 155 4.8 16.1 0.00 0.00 0.00 74 1015.9
20260507214504 11 160 4.8 12.9 0.00 0.00 0.00 73 1015.9
20260507214003 11 164 4.8 11.3 0.00 0.00 0.00 73 1015.9
20260507213713 11 158 4.8 11.3 0.00 0.00 0.00 73 1015.9
20260507213003 11 146 4.8 12.9 0.00 0.00 0.00 72 1015.9
20260507212503 11 135 6.4 14.5 0.00 0.00 0.00 72 1015.8
20260507212003 11 132 4.8 14.5 0.00 0.00 0.00 71 1015.7
20260507211715 11 131 4.8 14.5 0.00 0.00 0.00 71 1015.7
20260507211004 12 129 4.8 16.1 0.00 0.00 0.00 71 1015.7
20260507210503 12 133 4.8 14.5 0.00 0.00 0.00 70 1015.6
20260507210003 12 130 4.8 12.9 0.00 0.00 0.00 70 1015.6
20260507205504 12 124 4.8 12.9 0.00 0.00 0.00 70 1015.6
20260507205003 12 124 4.8 11.3 0.00 0.00 0.00 70 1015.5
20260507204505 12 126 3.2 11.3 0.00 0.00 0.00 70 1015.5
20260507204003 12 123 3.2 11.3 0.00 0.00 0.00 70 1015.5
20260507203504 12 120 3.2 11.3 0.00 0.00 0.00 70 1015.5
20260507203003 12 127 3.2 11.3 0.00 0.00 0.00 69 1015.5
20260507202503 12 130 1.6 9.7 0.00 0.00 0.00 69 1015.4
20260507202009 12 132 3.2 9.7 0.00 0.00 0.00 68 1015.4
20260507201503 12 133 4.8 14.5 0.00 0.00 0.00 68 1015.4
20260507201004 12 135 3.2 14.5 0.00 0.00 0.00 68 1015.4
20260507200504 12 139 1.6 8.0 0.00 0.00 0.00 68 1015.3
20260507200003 12 135 1.6 8.0 0.00 0.00 0.00 68 1015.3
20260507195503 12 133 3.2 11.3 0.00 0.00 0.00 67 1015.2
20260507195004 12 132 4.8 11.3 0.00 0.00 0.00 67 1015.2
20260507194503 12 133 4.8 12.9 0.00 0.00 0.00 66 1015.1
20260507194004 12 136 4.8 12.9 0.00 0.00 0.00 66 1015.1
20260507193504 12 136 4.8 12.9 0.00 0.00 0.00 65 1015.0
20260507193003 13 131 3.2 16.1 0.00 0.00 0.00 65 1015.0
20260507192503 13 133 4.8 16.1 0.00 0.00 0.00 65 1015.0
20260507192003 13 136 4.8 12.9 0.00 0.00 0.00 65 1015.0
20260507191503 13 140 3.2 12.9 0.00 0.00 0.00 64 1015.0
20260507191003 13 141 4.8 14.5 0.00 0.00 0.00 64 1015.0
20260507190717 13 135 4.8 14.5 0.00 0.00 0.00 63 1015.0
20260507190005 13 128 4.8 12.9 0.00 0.00 0.00 63 1015.0
20260507185503 13 132 4.8 16.1 0.00 0.00 0.00 63 1015.0
20260507185216 13 135 4.8 16.1 0.00 0.00 0.00 63 1015.0
20260507184504 13 128 6.4 16.1 0.00 0.00 0.00 62 1014.8
20260507184003 13 129 4.8 16.1 0.00 0.00 0.00 61 1014.7
20260507183504 13 132 4.8 14.5 0.00 0.00 0.00 61 1014.7
20260507183003 13 141 4.8 16.1 0.00 0.00 0.00 60 1014.7
20260507182504 13 147 6.4 16.1 0.00 0.00 0.00 59 1014.8
20260507182214 13 145 6.4 14.5 0.00 0.00 0.00 58 1014.8
20260507181717 14 144 6.4 16.1 0.00 0.00 0.00 57 1014.7
20260507181215 14 143 6.4 16.1 0.00 0.00 0.00 57 1014.6
20260507180713 14 144 8.0 17.7 0.00 0.00 0.00 57 1014.6
20260507180004 14 155 6.4 16.1 0.00 0.00 0.00 57 1014.6
20260507175504 14 156 4.8 16.1 0.00 0.00 0.00 56 1014.6
20260507175004 14 154 6.4 17.7 0.00 0.00 0.00 57 1014.6
20260507174503 14 153 6.4 17.7 0.00 0.00 0.00 57 1014.6
20260507174004 14 158 6.4 14.5 0.00 0.00 0.00 56 1014.6
20260507173503 15 155 4.8 14.5 0.00 0.00 0.00 56 1014.6
20260507173005 15 138 6.4 16.1 0.00 0.00 0.00 56 1014.6
20260507172503 15 128 6.4 16.1 0.00 0.00 0.00 55 1014.6
20260507172003 15 116 6.4 16.1 0.00 0.00 0.00 55 1014.5
20260507171504 15 109 6.4 16.1 0.00 0.00 0.00 55 1014.5
20260507171004 15 107 8.0 16.1 0.00 0.00 0.00 56 1014.6
20260507170713 15 104 8.0 16.1 0.00 0.00 0.00 55 1014.6
20260507170003 15 106 6.4 16.1 0.00 0.00 0.00 53 1014.6
20260507165503 16 112 4.8 14.5 0.00 0.00 0.00 54 1014.6
20260507165004 16 113 4.8 14.5 0.00 0.00 0.00 53 1014.6
20260507164715 16 107 4.8 14.5 0.00 0.00 0.00 52 1014.6
20260507164003 16 99 8.0 16.1 0.00 0.00 0.00 53 1014.5
20260507163503 16 116 6.4 16.1 0.00 0.00 0.00 54 1014.5
20260507163003 16 121 6.4 17.7 0.00 0.00 0.00 54 1014.6
20260507162504 16 124 4.8 17.7 0.00 0.00 0.00 54 1014.7
20260507162003 16 124 4.8 12.9 0.00 0.00 0.00 53 1014.7
20260507161504 16 110 6.4 14.5 0.00 0.00 0.00 53 1014.7
20260507161003 16 106 6.4 16.1 0.00 0.00 0.00 56 1014.7
20260507160504 15 113 4.8 16.1 0.00 0.00 0.00 55 1014.7
20260507160004 15 139 6.4 12.9 0.00 0.00 0.00 54 1014.7
20260507155503 15 167 4.8 11.3 0.00 0.00 0.00 55 1014.8
20260507155003 15 160 4.8 11.3 0.00 0.00 0.00 54 1014.8
20260507154716 15 153 3.2 9.7 0.00 0.00 0.00 54 1014.9
20260507154214 15 166 4.8 11.3 0.00 0.00 0.00 55 1015.0
20260507153717 15 158 6.4 14.5 0.00 0.00 0.00 54 1015.0
20260507153003 16 158 4.8 12.9 0.00 0.00 0.00 53 1015.0
20260507152504 16 146 4.8 11.3 0.00 0.00 0.00 54 1015.1
20260507152004 15 133 4.8 11.3 0.00 0.00 0.00 54 1015.1
20260507151503 15 150 6.4 14.5 0.00 0.00 0.00 54 1015.1
20260507151003 15 159 6.4 14.5 0.00 0.00 0.00 53 1015.2
20260507150503 15 164 4.8 14.5 0.00 0.00 0.00 53 1015.1
20260507150218 15 165 4.8 14.5 0.00 0.00 0.00 54 1015.2
20260507145504 15 164 6.4 12.9 0.00 0.00 0.00 54 1015.1
20260507145003 15 151 6.4 11.3 0.00 0.00 0.00 54 1015.1
20260507144504 15 135 4.8 11.3 0.00 0.00 0.00 54 1015.2
20260507144003 15 153 3.2 11.3 0.00 0.00 0.00 55 1015.1
20260507143503 15 158 4.8 11.3 0.00 0.00 0.00 54 1015.2
20260507143004 15 139 4.8 11.3 0.00 0.00 0.00 53 1015.2
20260507142504 15 138 4.8 11.3 0.00 0.00 0.00 53 1015.2
20260507142003 15 156 4.8 14.5 0.00 0.00 0.00 54 1015.3
20260507141503 15 164 4.8 14.5 0.00 0.00 0.00 53 1015.3
20260507141004 15 163 6.4 14.5 0.00 0.00 0.00 54 1015.4
20260507140503 15 160 4.8 14.5 0.00 0.00 0.00 54 1015.4
20260507140005 15 153 4.8 12.9 0.00 0.00 0.00 55 1015.4
20260507135716 15 160 4.8 11.3 0.00 0.00 0.00 55 1015.4
20260507135214 15 156 6.4 11.3 0.00 0.00 0.00 55 1015.5
20260507134503 15 146 8.0 14.5 0.00 0.00 0.00 54 1015.5
20260507134215 15 154 6.4 14.5 0.00 0.00 0.00 54 1015.5
20260507133503 15 165 4.8 16.1 0.00 0.00 0.00 53 1015.6
20260507133004 15 163 6.4 16.1 0.00 0.00 0.00 53 1015.6
20260507132503 15 162 6.4 16.1 0.00 0.00 0.00 54 1015.6
20260507132003 16 160 6.4 16.1 0.00 0.00 0.00 51 1015.6
20260507131504 16 151 6.4 16.1 0.00 0.00 0.00 52 1015.5
20260507131003 16 134 4.8 12.9 0.00 0.00 0.00 49 1015.5
20260507130504 16 159 6.4 14.5 0.00 0.00 0.00 50 1015.5
20260507130214 17 170 6.4 16.1 0.00 0.00 0.00 50 1015.5
20260507125504 17 164 8.0 16.1 0.00 0.00 0.00 49 1015.5
20260507125004 17 164 8.0 14.5 0.00 0.00 0.00 49 1015.6
20260507124503 17 156 6.4 14.5 0.00 0.00 0.00 49 1015.5
20260507124003 17 158 6.4 12.9 0.00 0.00 0.00 52 1015.6
20260507123503 17 167 6.4 16.1 0.00 0.00 0.00 52 1015.5
20260507123003 17 178 8.0 20.9 0.00 0.00 0.00 47 1015.6
20260507122504 17 185 8.0 20.9 0.00 0.00 0.00 50 1015.7
20260507122004 17 181 4.8 16.1 0.00 0.00 0.00 51 1015.6
20260507121503 17 188 4.8 16.1 0.00 0.00 0.00 51 1015.6
20260507121003 17 192 8.0 19.3 0.00 0.00 0.00 53 1015.7
20260507120504 17 196 8.0 19.3 0.00 0.00 0.00 51 1015.8
20260507120003 17 201 4.8 19.3 0.00 0.00 0.00 51 1015.8
20260507115503 16 182 3.2 11.3 0.00 0.00 0.00 59 1015.9
20260507115004 16 179 1.6 12.9 0.00 0.00 0.00 55 1015.9
20260507114714 16 192 4.8 14.5 0.00 0.00 0.00 55 1015.9
20260507114003 16 189 6.4 14.5 0.00 0.00 0.00 55 1015.9
20260507113714 15 180 4.8 14.5 0.00 0.00 0.00 56 1015.9
20260507113004 15 173 6.4 14.5 0.00 0.00 0.00 55 1015.9
20260507112503 15 166 6.4 14.5 0.00 0.00 0.00 55 1016.0
20260507112003 16 152 3.2 14.5 0.00 0.00 0.00 56 1016.0
20260507111506 16 171 4.8 16.1 0.00 0.00 0.00 56 1015.9
20260507111004 16 181 8.0 16.1 0.00 0.00 0.00 55 1016.1
20260507110504 16 189 8.0 17.7 0.00 0.00 0.00 54 1016.1
20260507110005 16 190 6.4 17.7 0.00 0.00 0.00 57 1016.1
20260507105504 15 194 4.8 14.5 0.00 0.00 0.00 57 1016.2
20260507105003 15 196 4.8 14.5 0.00 0.00 0.00 59 1016.2
20260507104504 15 168 6.4 14.5 0.00 0.00 0.00 59 1016.2
20260507104003 15 149 6.4 16.1 0.00 0.00 0.00 60 1016.3
20260507103715 15 150 6.4 16.1 0.00 0.00 0.00 59 1016.3
20260507103003 14 183 3.2 12.9 0.00 0.00 0.00 64 1016.3
20260507101503 13 193 9.7 17.7 0.00 0.00 0.00 67 1016.3
20260507101003 13 187 8.0 17.7 0.00 0.00 0.00 65 1016.4
20260507100504 14 164 6.4 16.1 0.00 0.00 0.00 61 1016.4
20260507100216 15 159 6.4 16.1 0.00 0.00 0.00 63 1016.4
20260507095503 14 168 4.8 12.9 0.00 0.00 0.00 68 1016.3
20260507095003 13 163 6.4 14.5 0.00 0.00 0.00 66 1016.4
20260507094504 13 162 6.4 14.5 0.00 0.00 0.00 67 1016.4
20260507094213 13 168 6.4 11.3 0.00 0.00 0.00 67 1016.5
20260507093504 13 172 4.8 12.9 0.00 0.00 0.00 67 1016.5
20260507093004 13 160 6.4 12.9 0.00 0.00 0.00 67 1016.5
20260507092503 13 172 6.4 12.9 0.00 0.00 0.00 68 1016.5
20260507092004 13 184 6.4 12.9 0.00 0.00 0.00 70 1016.5
20260507091503 13 181 6.4 14.5 0.00 0.00 0.00 68 1016.5
20260507091007 13 188 4.8 14.5 0.00 0.00 0.00 67 1016.5
20260507090504 13 211 1.6 12.9 0.00 0.00 0.00 71 1016.5
20260507090216 13 203 1.6 8.0 0.00 0.00 0.00 71 1016.5
20260507085003 12 211 3.2 11.3 0.00 0.00 0.00 73 1016.6
20260507084504 12 177 3.2 11.3 0.00 0.00 0.00 72 1016.5
20260507084003 12 171 3.2 9.7 0.00 0.00 0.00 70 1016.5
20260507083503 13 189 1.6 8.0 0.00 0.00 0.00 70 1016.5
20260507083004 13 205 1.6 9.7 0.00 0.00 0.00 71 1016.6
20260507082504 13 203 1.6 9.7 0.00 0.00 0.00 70 1016.6
20260507082004 13 201 1.6 8.0 0.00 0.00 0.00 70 1016.6
20260507081504 13 216 1.6 6.4 0.00 0.00 0.00 71 1016.6
20260507081003 13 215 0.0 6.4 0.00 0.00 0.00 71 1016.6
20260507080503 13 222 0.0 3.2 0.00 0.00 0.00 73 1016.6
20260507080005 12 0 0.0 0.0 0.00 0.00 0.00 74 1016.6
20260507075503 12 0 0.0 0.0 0.00 0.00 0.00 75 1016.6
20260507075003 12 0 0.0 0.0 0.00 0.00 0.00 76 1016.6
20260507074513 12 0 0.0 0.0 0.00 0.00 0.00 76 1016.6
20260507074214 11 0 0.0 0.0 0.00 0.00 0.00 77 1016.6
20260507073504 11 0 0.0 0.0 0.00 0.00 0.00 78 1016.5
20260507073004 11 0 0.0 0.0 0.00 0.00 0.00 80 1016.5
20260507072713 10 0 0.0 0.0 0.00 0.00 0.00 82 1016.5
20260507072004 9 0 0.0 0.0 0.00 0.00 0.00 84 1016.5
20260507071714 9 0 0.0 0.0 0.00 0.00 0.00 85 1016.4
20260507071003 8 0 0.0 0.0 0.00 0.00 0.00 89 1016.4